Regional Weather Roundup
Issued by NWS Sterling, VA

Home | Current Version | Previous Version | Text Only | Print | Product List | Glossary Off
Versions: 1 2 3 4 5 6 7 8 9 10 11 12 13 14 15 16 17 18 19 20 21 22 23 24 25 26 27 28 29 30 31 32 33 34 35 36 37 38 39 40 41 42 43 44 45 46 47 48 49 50

709
ASUS41 KLWX 261410
RWRLWX

REGIONAL WEATHER ROUNDUP
NATIONAL WEATHER SERVICE BALTIMORE MD/WASHINGTON DC
1000 AM EDT MON SEP 26 2016

Note: "FAIR" indicates few or no clouds below 12,000 feet
with no significant weather and/or obstructions to visibility.
 TC=TEMPERATURE CELSIUS

 * =Non NWS site. Station does not report precipitation (e.g. rain,
    snow, etc.), thunder, or fog.

DCZ001-MDZ009-015-VAZ040>042-051-053>054-261500-
WASHINGTON METRO

CITY           SKY/WX    TMP DP  RH WIND       PRES   REMARKS
WASHINGTON NAT CLOUDY    68  59  73 S12       30.14S
DULLES         CLOUDY    66  56  70 S8        30.13R
ANDREWS AFB    CLOUDY    65  59  79 S7        30.13S
FT BELVOIR     CLOUDY    66  58  74 SE5       30.13S
QUANTICO       CLOUDY    68  59  73 SW13      30.15R
COLLEGE PARK*  CLOUDY    66  55  68 S5        30.13S
LEESBURG*      CLOUDY    66  61  82 S8G20     30.14R
MANASSAS*      CLOUDY    64  59  82 S6        30.13S
GAITHERSBURG*  CLOUDY    63  55  77 SE7       30.17R

$$

MDZ006>007-011-014-261500-
BALTIMORE METRO

CITY           SKY/WX    TMP DP  RH WIND       PRES   REMARKS
BWI AIRPORT    CLOUDY    66  58  75 S7        30.13F
MD SCIENCE CTR   N/A     68  58  70 MISG      30.14S
MARTIN STATE   CLOUDY    68  63  83 SE10      30.16S
ANNAPOLIS      CLOUDY    68  58  70 S15       30.14S
FORT MEADE*    CLOUDY    63  59  88 CALM      30.16S

$$

MDZ012-015-019>023-261500-
MARYLAND EASTERN SHORE

CITY           SKY/WX    TMP DP  RH WIND       PRES   REMARKS
OCEAN CITY     SUNNY     71  50  47 SE9       30.18R
SALISBURY      NOT AVBL
BAY BRIDGE AP* CLOUDY    68  57  68 MISG      30.14F
CAMBRIDGE*     MOSUNNY   64  54  68 SE7       30.15S
EASTON*        CLOUDY    66  55  68 SE8       30.19S

$$

MDZ017>025-261500-
SOUTHERN MARYLAND

CITY           SKY/WX    TMP DP  RH WIND       PRES   REMARKS
PATUXENT RIVER CLOUDY    69  56  62 S9        30.15R
ST INIGOES     CLOUDY    69  58  67 SE8       30.15R
LEONARDTOWN*   CLOUDY    68  59  73 SE5       30.17R

$$

MDZ003>005-261500-
NORTH CENTRAL MARYLAND

CITY           SKY/WX    TMP DP  RH WIND       PRES   REMARKS
FREDERICK*     CLOUDY    61  55  82 CALM      30.15S
HAGERSTOWN APT NOT AVBL

$$

MDZ501>502-261500-
WESTERN MARYLAND

CITY           SKY/WX    TMP DP  RH WIND       PRES   REMARKS
OAKLAND*       SUNNY     64  57  77 S8        30.09S
CUMBERLAND*    CLOUDY    61  54  77 CALM      30.11F

$$

VAZ025>031-261500-
SHENANDOAH VALLEY

CITY           SKY/WX    TMP DP  RH WIND       PRES   REMARKS
WINCHESTER*    CLOUDY    64  59  82 S10       30.10R
FRONT ROYAL*   CLOUDY    64  61  88 CALM      30.09R
LURAY*         CLOUDY    66  63  88 S5        30.10S
NEW MARKET*    CLOUDY   N/A N/A N/A SW9       30.09S
STAUNTON*      CLOUDY    65  60  86 S8        30.13S
WAYNESBORO*    CLOUDY    63  60  90 SE5       30.13S

$$

WVZ021-048>050-054>055-261500-
EASTERN WEST VIRGINIA PANHANDLE

CITY           SKY/WX    TMP DP  RH WIND       PRES   REMARKS
MARTINSBURG    NOT AVBL
PETERSBURG*    SUNNY     65  54  67 CALM      30.07S

$$

VAZ036>039-050-261500-
CENTRAL FOOTHILLS

CITY           SKY/WX    TMP DP  RH WIND       PRES   REMARKS
CHARLOTTESVILL NOT AVBL
CULPEPER*      CLOUDY    65  61  89 S6        30.14S
ORANGE*          N/A     64  63  94 CALM      30.15S
GORDONSVILLE*  NOT AVBL
WARRENTON*     CLOUDY    66  56  70 S7        30.13R

$$

VAZ055>057-261500-
NORTH AND CENTRAL PIEDMONT

CITY           SKY/WX    TMP DP  RH WIND       PRES   REMARKS
FREDERICKSBRG* CLOUDY    65  61  85 S5        30.14S
STAFFORD*      CLOUDY    65  60  81 CALM      30.18S

$$

NCZ024-NYZ072-PAZ021-071-VAZ022-071-261500-
OTHER REGIONAL OBSERVATIONS

CITY           SKY/WX    TMP DP  RH WIND       PRES   REMARKS
NEW YORK CITY  SUNNY     63  44  50 VRB5      30.22S
PHILADELPHIA   PTSUNNY   66  53  63 VRB3      30.18S
PITTSBURGH     MOSUNNY   64  54  69 SE8       29.98S

$$

ANZ530>537-261500-
MARINE OBSERVATIONS

STATION/POSITION TIME  TEMP    WIND        PRES
                       AIR SEA DIR/SP/G
                 (UTC) (F)     (DEG/KT/KT) (MB)
THOMAS PT LIGHT  1400   67 74  150/ 19/ 20 1021.5F
BALT KEY BRIDGE  1342   67     140/ 13/ 15 1020.2F
COVE POINT       1342   68     170/ 16/ 20 1021.3F
LEWISETTA        1342   68 74  150/  6/  8 1020.6R
SOLOMONS ISLAND  1342   69 76  160/ 11/ 14   N/A
PINEY POINT      1348          180/ 14/ 15   N/A

$$





USA.gov is the U.S. government's official web portal to all federal, state and local government web resources and services.